Change the Weather History Date:

Wednesday, February 6, 2013

  Actual Average Record
Temperature  
Mean Temperature 34 °F -  
Max Temperature 37 °F 43 °F 62 °F (2004)
Min Temperature 32 °F 31 °F 12 °F (2012)
Degree Days  
Heating Degree Days 30    
Moisture  
Dew Point 29 °F    
Average Humidity 80    
Maximum Humidity 100    
Minimum Humidity 50    
Precipitation  
Precipitation 0.12 in 0.10 in - ()
Sea Level Pressure  
Sea Level Pressure 29.63 in    
Wind  
Wind Speed 10 mph ()    
Max Wind Speed 18 mph    
Max Gust Speed 26 mph    
Visibility 5.1 miles    
Events Rain , Snow    
Averages and records for this station are not official NWS values.
T = Trace of Precipitation, MM = Missing Value Source: Averaged Metar Reports

Daily Weather History Graph

Daily Weather History Graph

Search for Another Location

Airport or City:

Trip Planner

Search our weather history database for the weather conditions in past years. The results will help you decide how hot, cold, wet, or windy it might be!

Date:

Astronomy

Feb. 06, 2013 Rise Set
Actual Time 7:51 AM CET 5:47 PM CET
Civil Twilight 7:20 AM CET 6:19 PM CET
Nautical Twilight 6:44 AM CET 6:55 PM CET
Astronomical Twilight 6:09 AM CET 7:30 PM CET
Moon 4:26 AM CET 1:42 PM CET
Length of Visible Light 10h 59m
Length of Day
9h 55m
Waning Crescent, 19% of the Moon is Illuminated
Feb 6
Waning Crescent
Feb 10
New
Feb 17
First Quarter
Feb 25
Full
Mar 4
Last Quarter

Hourly Weather History & Observations

Time (CET) Temp. Windchill Dew Point Humidity Pressure Visibility Wind Dir Wind Speed Gust Speed Precip Events Conditions
12:00 AM 37 °F - 26 °F 54% 29.78 in - SSW 13.8 mph - -  
12:20 AM 37.4 °F 28.5 °F 28.4 °F 70% 29.74 in 6.2 mi SW 15.0 mph - N/A   Mostly Cloudy
12:50 AM 35.6 °F 31.7 °F 30.2 °F 81% 29.74 in 3.1 mi West 4.6 mph - N/A   Mostly Cloudy
1:00 AM 33 °F - 30 °F 84% 29.80 in 25 mi North 2.3 mph - -   Partly Cloudy
1:20 AM 33.8 °F - 30.2 °F 87% 29.71 in 6.2 mi Variable 1.2 mph - N/A   Mostly Cloudy
1:50 AM 35.6 °F 27.5 °F 28.4 °F 75% 29.71 in 6.2 mi SW 11.5 mph - N/A   Mostly Cloudy
2:00 AM 36 °F - 27 °F 59% 29.77 in - SW 12.7 mph - -  
2:50 AM 33.8 °F 24.3 °F 30.2 °F 87% 29.71 in 6.2 mi South 13.8 mph - N/A   Mostly Cloudy
3:00 AM 35 °F - 28 °F 66% 29.76 in - South 13.8 mph - -  
3:20 AM 35.6 °F 26.2 °F 28.4 °F 75% 29.68 in 6.2 mi South 15.0 mph - N/A   Mostly Cloudy
3:50 AM 35.6 °F 26.2 °F 26.6 °F 70% 29.68 in 6.2 mi SSW 15.0 mph - N/A   Scattered Clouds
4:20 AM 35.6 °F 26.2 °F 26.6 °F 70% 29.65 in 6.2 mi SSW 15.0 mph - N/A   Mostly Cloudy
4:50 AM 33.8 °F 24.8 °F 28.4 °F 81% 29.65 in 6.2 mi SSW 12.7 mph - N/A   Mostly Cloudy
5:00 AM 35 °F - 28 °F 66% 29.72 in - SSW 13.8 mph - -  
5:20 AM 33.8 °F 23.9 °F 28.4 °F 81% 29.65 in 6.2 mi SSW 15.0 mph - N/A   Mostly Cloudy
5:50 AM 35.6 °F 26.2 °F 28.4 °F 75% 29.65 in 6.2 mi SSW 15.0 mph - N/A   Mostly Cloudy
6:00 AM 35 °F - 26 °F 60% 29.70 in - SSW 13.8 mph - -  
6:20 AM 35.6 °F 27.1 °F 26.6 °F 70% 29.62 in 6.2 mi SSW 12.7 mph - N/A   Mostly Cloudy
6:50 AM 35.6 °F 27.1 °F 24.8 °F 65% 29.59 in 6.2 mi SSW 12.7 mph - N/A   Mostly Cloudy
7:00 AM 35 °F - 23 °F 50% 29.66 in 19 mi SSW 12.7 mph - -   Overcast
7:20 AM 35.6 °F 27.5 °F 24.8 °F 65% 29.59 in 6.2 mi SW 11.5 mph - N/A   Mostly Cloudy
7:50 AM 33.8 °F 24.8 °F 26.6 °F 75% 29.59 in 6.2 mi WSW 12.7 mph - N/A   Mostly Cloudy
8:00 AM 34 °F - 26 °F 62% 29.65 in - WSW 15.0 mph - -  
8:20 AM 33.8 °F 25.3 °F 26.6 °F 75% 29.59 in 5.0 mi SW 11.5 mph - N/A Snow Light Snow
8:50 AM 32.0 °F 22.5 °F 30.2 °F 93% 29.59 in 1.4 mi SW 12.7 mph - N/A Snow Snow
9:00 AM 32 °F - 29 °F 85% 29.66 in - SW 12.7 mph - -  
9:20 AM 32.0 °F 21.6 °F 30.2 °F 93% 29.59 in 5.0 mi SW 15.0 mph - N/A   Mostly Cloudy
9:50 AM 33.8 °F 23.2 °F 28.4 °F 81% 29.59 in 6.2 mi SSW 17.3 mph - N/A   Mostly Cloudy
10:20 AM 33.8 °F 23.5 °F 28.4 °F 81% 29.56 in 6.2 mi SW 16.1 mph - N/A   Mostly Cloudy
10:50 AM 33.8 °F 23.2 °F 28.4 °F 81% 29.56 in 3.1 mi SW 17.3 mph - N/A Snow Snow Showers
11:00 AM 35 °F - 29 °F 69% 29.62 in - SW 17.3 mph - -  
11:20 AM 33.8 °F 23.9 °F 30.2 °F 87% 29.56 in 3.1 mi SW 15.0 mph - N/A Snow Snow Showers
11:50 AM 35.6 °F 25.5 °F 30.2 °F 81% 29.56 in 5.6 mi SW 17.3 mph - N/A Snow Light Snow
12:00 PM 36 °F - 29 °F 67% 29.60 in - SW 18.4 mph - -  
12:20 PM 35.6 °F 25.9 °F 30.2 °F 81% 29.53 in 2.2 mi SW 16.1 mph - N/A Snow Snow
12:50 PM 33.8 °F 23.9 °F 32.0 °F 93% 29.53 in 1.2 mi SW 15.0 mph - N/A Snow Snow
1:00 PM 35 °F - 32 °F 83% 29.59 in 1 mi SW 12.7 mph - - Snow Heavy Snow
1:20 PM 35.6 °F 26.6 °F 32.0 °F 87% 29.53 in - SW 13.8 mph 26.5 mph N/A Snow Light Snow
1:50 PM 33.8 °F 24.3 °F 32.0 °F 93% 29.53 in 1.9 mi SSW 13.8 mph - N/A Snow Light Snow
2:00 PM 35 °F - 32 °F 84% 29.58 in - SSW 15.0 mph - -  
2:20 PM 33.8 °F 23.9 °F 32.0 °F 93% 29.50 in 0.5 mi SSW 15.0 mph - N/A Snow Heavy Snow
2:50 PM 33.8 °F 27.0 °F 32.0 °F 93% 29.53 in - SSW 8.1 mph - N/A Snow Light Snow
3:00 PM 34 °F - 32 °F 89% 29.58 in - SSW 6.9 mph - -  
3:20 PM 33.8 °F 27.0 °F 32.0 °F 93% 29.53 in 1.9 mi SSW 8.1 mph - N/A Snow Snow
3:50 PM 33.8 °F 25.3 °F 32.0 °F 93% 29.53 in 2.8 mi SW 11.5 mph - N/A Snow Snow Showers
4:20 PM 35.6 °F 28.0 °F 33.8 °F 93% 29.53 in 6.2 mi SW 10.4 mph - N/A Rain Light Rain Showers
4:50 PM 35.6 °F 30.7 °F 33.8 °F 93% 29.53 in 6.2 mi SSW 5.8 mph - N/A Rain , Snow Light Rain Showers
5:00 PM 36 °F - 33 °F 82% 29.59 in - SW 11.5 mph - -  
5:20 PM 35.6 °F 30.7 °F 33.8 °F 93% 29.53 in 6.2 mi WSW 5.8 mph - N/A Rain , Snow Light Rain Showers
5:50 PM 35.6 °F 29.9 °F 33.8 °F 93% 29.56 in 6.2 mi WSW 6.9 mph - N/A Rain Light Rain Showers
6:00 PM 35 °F - 32 °F 83% 29.62 in - WNW 4.6 mph - -  
6:20 PM 35.6 °F 32.8 °F 32.0 °F 87% 29.56 in 6.2 mi Variable 3.5 mph - N/A   Mostly Cloudy
6:50 PM 33.8 °F 27.0 °F 30.2 °F 87% 29.59 in 0.6 mi NNW 8.1 mph - N/A Snow Heavy Snow Showers
7:00 PM 33 °F - 31 °F 91% 29.68 in 28 mi West 4.6 mph - - Rain Light Rain Showers
7:20 PM 32.0 °F 27.5 °F 32.0 °F 100% 29.62 in 5.6 mi South 4.6 mph - N/A Snow Light Snow Showers
7:50 PM 33.8 °F 27.7 °F 30.2 °F 87% 29.62 in 6.2 mi Variable 6.9 mph - N/A   Mostly Cloudy
8:00 PM 35 °F - 25 °F 56% 29.68 in - WNW 8.1 mph - -  
8:20 PM 33.8 °F 29.6 °F 26.6 °F 75% 29.62 in 2.2 mi NNW 4.6 mph - N/A Snow Snow
8:50 PM 33.8 °F 30.8 °F 28.4 °F 81% 29.65 in 5.6 mi Variable 3.5 mph - N/A Snow Light Snow
9:00 PM 33 °F - 28 °F 77% 29.71 in - North 4.6 mph - -  
9:20 PM 32.0 °F 27.5 °F 28.4 °F 87% 29.65 in 5.0 mi West 4.6 mph - N/A   Mostly Cloudy
9:50 PM 33.8 °F 29.6 °F 26.6 °F 75% 29.65 in 6.2 mi SSW 4.6 mph - N/A   Mostly Cloudy
10:20 PM 32.0 °F - 28.4 °F 87% 29.68 in 6.2 mi Variable 2.3 mph - N/A   Mostly Cloudy
10:50 PM 32.0 °F - 28.4 °F 87% 29.68 in 6.2 mi Variable 2.3 mph - N/A   Mostly Cloudy
11:00 PM 34 °F - 28 °F 69% 29.75 in - WSW 5.8 mph - -  
11:20 PM 32.0 °F 24.8 °F 30.2 °F 93% 29.68 in 5.0 mi SW 8.1 mph - N/A Snow Light Snow Showers
11:50 PM 32.0 °F 27.5 °F 28.4 °F 87% 29.71 in 5.6 mi West 4.6 mph - N/A   Mostly Cloudy